Terminal Aerodrome Forecast
Issued by NWS

Home | Current Version | Previous Version | Text Only | Print | Product List | Glossary On
Versions: 1 2 3 4 5 6 7 8 9 10 11 12 13
000
FTUS46 KHNX 161724
TAFFAT
TAF
KFAT 161724Z 1618/1718 31007KT 4SM HZ SKC
     FM161900 33010KT P6SM SKC
      TEMPO 1621/1701 31012G22KT
     FM170600 VRB04KT P6SM SKC=

USA.gov is the U.S. government's official web portal to all federal, state and local government web resources and services.